Location: Cortos
(40.7190°N, 4.5893°W)
Time: 09:50:54
(UTC+00:00)

SPOT 5 - Pass Details

Date: 05 July 2020
Orbit: 622 x 815 km, 98.3° (Epoch: 08 August)

Event Time Altitude Azimuth Distance (km) Brightness Sun altitude
Exits shadow 22:53:10 24° 228° (SW) 1,527 4.3 -23.3°
Maximum altitude 22:54:55 30° 263° (W) 1,319 4.3 -23.4°
Drops below altitude 10° 22:59:14 10° 325° (NW) 2,223 6.4 -23.7°
Sets 23:01:42 0° 336° (NNW) 3,114 7.6 -23.8°
